Date String (YYYY-MM-DD hh:mm:ss) UTC,Instrument flags,Ambient pressure (hPa),Sample flow (lpm),Bypass flow (lpm),Sample temperature (°C),Ambient temperature (°C),ASC tube jacket temperature (°C),LED temperature (°C),Box temperature (°C),Sample RH (%),Span deviation,Mass concentration (μg/m³),Mass concentration (μg/m³),Mass concentration (μg/m³)
DateTimeUTC,F1_M11,P_M11,Q1_M11,Q2_M11,T1_M11,T2_M11,T3_M11,T4_M11,T5_M11,U1_M11,ZSPAN_M11,X0_M11,X2_M11,X1_M11
2021-09-28 10:00:00,,0822.9,4.99,0.00,30.0,29.1,00.0,39.1,31.8,14.7,0000.0,0016.52,0005.30,0003.78
2021-09-28 10:01:00,,0822.9,5.00,0.00,30.0,29.1,00.0,39.1,31.8,14.8,0000.0,0015.92,0005.27,0003.78
2021-09-28 10:02:00,,0822.9,5.02,0.00,30.0,29.2,00.0,39.1,31.8,14.8,0000.0,0016.22,0005.38,0003.80
2021-09-28 10:03:00,,0822.9,4.99,0.00,30.1,29.2,00.0,39.1,31.9,14.7,0000.0,0015.81,0005.44,0003.81
2021-09-28 10:04:00,,0822.9,4.99,0.00,30.1,29.2,00.0,39.1,31.9,14.8,0000.0,0016.11,0005.48,0003.82
2021-09-28 10:05:00,,0822.9,5.01,0.00,30.1,29.2,00.0,39.1,31.9,14.7,0000.0,0016.83,0005.54,0003.83
2021-09-28 10:06:00,,0822.9,4.99,0.00,30.1,29.2,00.0,39.2,31.9,15.0,0000.0,0016.58,0005.60,0003.84
2021-09-28 10:07:00,,0822.9,5.01,0.00,30.1,29.3,00.0,39.2,31.9,14.8,0000.0,0015.83,0005.66,0003.86
2021-09-28 10:08:00,,0823.0,4.99,0.00,30.1,28.1,00.0,39.2,31.6,15.1,0000.0,0015.91,0005.65,0003.89
2021-09-28 10:09:00,,0823.0,5.00,0.00,29.9,26.4,00.0,39.1,31.2,15.2,0000.0,0016.42,0005.67,0003.92
2021-09-28 10:10:00,,0823.0,5.00,0.00,29.8,26.3,00.0,39.1,31.1,15.0,0000.0,0016.96,0005.67,0003.95
2021-09-28 10:11:00,,0823.0,5.01,0.00,29.8,26.7,00.0,39.1,31.2,14.8,0000.0,0017.37,0005.69,0003.99
2021-09-28 10:12:00,,0823.0,5.00,0.00,29.7,27.1,00.0,39.0,31.2,14.7,0000.0,0017.26,0005.72,0004.00
2021-09-28 10:13:00,,0823.0,5.00,0.00,29.7,27.5,00.0,39.0,31.3,14.7,0000.0,0016.85,0005.65,0003.99
2021-09-28 10:14:00,,0822.9,5.00,0.00,29.7,27.8,00.0,38.9,31.3,14.8,0000.0,0016.40,0005.58,0003.98
2021-09-28 10:15:00,,0823.0,5.00,0.00,29.7,28.0,00.0,38.9,31.4,14.7,0000.0,0016.12,0005.64,0003.99
2021-09-28 10:16:00,,0823.0,4.99,0.00,29.7,28.2,00.0,38.9,31.4,14.6,0000.0,0015.29,0005.62,0004.00
2021-09-28 10:17:00,,0823.0,5.00,0.00,29.8,28.3,00.0,38.9,31.4,14.7,0000.0,0015.09,0005.57,0004.01
2021-09-28 10:18:00,,0823.0,4.99,0.00,29.8,28.5,00.0,38.9,31.5,15.0,0000.0,0016.03,0005.52,0003.99
2021-09-28 10:19:00,,0823.0,5.01,0.00,29.8,28.6,00.0,38.9,31.6,14.9,0000.0,0016.19,0005.50,0003.96
2021-09-28 10:20:00,,0822.9,5.00,0.00,29.8,28.7,00.0,38.9,31.6,14.8,0000.0,0015.74,0005.44,0003.94
2021-09-28 10:21:00,,0823.1,4.99,0.00,29.8,28.8,00.0,38.9,31.6,14.7,0000.0,0014.94,0005.44,0003.93
2021-09-28 10:22:00,,0822.9,5.00,0.00,29.9,28.8,00.0,38.9,31.7,14.4,0000.0,0014.64,0005.43,0003.92
2021-09-28 10:23:00,,0822.9,5.01,0.00,29.9,28.9,00.0,39.0,31.7,15.3,0000.0,0014.86,0005.40,0003.92
2021-09-28 10:24:00,,0822.9,5.00,0.00,29.9,28.9,00.0,39.0,31.7,15.2,0000.0,0015.76,0005.38,0003.93
2021-09-28 10:25:00,,0823.0,5.00,0.00,30.0,28.9,00.0,39.0,31.7,14.4,0000.0,0015.65,0005.35,0003.93
2021-09-28 10:26:00,,0822.9,5.00,0.00,30.0,29.0,00.0,39.0,31.8,14.2,0000.0,0015.70,0005.28,0003.92
2021-09-28 10:27:00,,0822.9,4.98,0.00,30.0,29.0,00.0,39.0,31.7,14.2,0000.0,0016.18,0005.28,0003.91
2021-09-28 10:28:00,,0822.9,5.01,0.00,30.0,29.1,00.0,39.0,31.8,14.4,0000.0,0016.66,0005.33,0003.91
2021-09-28 10:29:00,,0822.9,4.99,0.00,30.0,29.1,00.0,39.0,31.8,14.3,0000.0,0016.04,0005.33,0003.92
2021-09-28 10:30:00,,0823.0,5.01,0.00,30.1,29.1,00.0,39.1,31.9,14.3,0000.0,0016.08,0005.32,0003.93
2021-09-28 10:31:00,,0823.0,4.99,0.00,30.1,29.2,00.0,39.1,31.9,14.3,0000.0,0016.36,0005.33,0003.94
2021-09-28 10:32:00,,0823.0,5.00,0.00,30.1,29.2,00.0,39.1,31.9,14.1,0000.0,0017.44,0005.33,0003.94
2021-09-28 10:33:00,,0823.0,5.00,0.00,30.1,29.2,00.0,39.1,31.9,14.1,0000.0,0017.52,0005.34,0003.97
2021-09-28 10:34:00,,0823.0,5.00,0.00,30.1,29.3,00.0,39.1,31.9,14.0,0000.0,0018.41,0005.36,0003.99
2021-09-28 10:35:00,,0823.0,5.01,0.00,30.2,29.3,00.0,39.1,31.9,13.9,0000.0,0018.81,0005.42,0004.00
2021-09-28 10:36:00,,0823.1,4.99,0.00,30.2,29.3,00.0,39.2,32.0,13.9,0000.0,0019.89,0005.45,0004.03
2021-09-28 10:37:00,,0823.0,5.01,0.00,30.2,29.4,00.0,39.2,32.0,13.9,0000.0,0020.17,0005.50,0004.05
2021-09-28 10:38:00,,0823.1,5.00,0.00,30.2,29.4,00.0,39.2,32.0,13.9,0000.0,0020.08,0005.45,0004.05
2021-09-28 10:39:00,,0823.1,4.99,0.00,30.2,29.4,00.0,39.2,32.0,13.9,0000.0,0019.90,0005.48,0004.07
2021-09-28 10:40:00,,0823.1,5.00,0.00,30.2,28.4,00.0,39.2,31.7,14.0,0000.0,0019.58,0005.50,0004.08
2021-09-28 10:41:00,,0823.2,5.00,0.00,30.0,26.5,00.0,39.2,31.2,14.2,0000.0,0019.78,0005.55,0004.11
2021-09-28 10:42:00,,0823.3,5.00,0.00,29.9,26.5,00.0,39.2,31.2,14.4,0000.0,0020.00,0005.58,0004.13
2021-09-28 10:43:00,,0823.3,5.01,0.00,29.8,26.8,00.0,39.1,31.3,14.6,0000.0,0019.96,0005.64,0004.15
2021-09-28 10:44:00,,0823.4,5.00,0.00,29.8,27.2,00.0,39.1,31.3,15.2,0000.0,0019.61,0005.69,0004.16
2021-09-28 10:45:00,,0823.4,5.00,0.00,29.8,27.6,00.0,39.0,31.3,15.6,0000.0,0019.80,0005.70,0004.16
2021-09-28 10:46:00,,0823.4,5.01,0.00,29.8,27.8,00.0,39.0,31.4,15.6,0000.0,0019.86,0005.65,0004.16
2021-09-28 10:47:00,,0823.4,4.99,0.00,29.8,28.0,00.0,39.0,31.5,15.7,0000.0,0020.21,0005.67,0004.17
2021-09-28 10:48:00,,0823.4,5.01,0.00,29.8,28.2,00.0,39.0,31.5,16.0,0000.0,0019.76,0005.59,0004.15
2021-09-28 10:49:00,,0823.3,4.99,0.00,29.8,28.3,00.0,39.0,31.5,16.2,0000.6,0020.02,0005.63,0004.14
2021-09-28 10:50:00,,0823.3,5.00,0.00,29.8,28.5,00.0,39.0,31.6,16.4,0001.3,0019.91,0005.59,0004.12
2021-09-28 10:51:00,,0823.3,5.00,0.00,29.8,28.6,00.0,39.0,31.6,16.5,0001.1,0019.55,0005.57,0004.12
2021-09-28 10:52:00,,0823.4,5.00,0.00,29.8,28.6,00.0,39.0,31.6,16.6,0002.5,0019.79,0005.61,0004.11
2021-09-28 10:53:00,,0823.4,4.99,0.00,29.9,28.7,00.0,39.0,31.7,16.5,0002.9,0019.61,0005.62,0004.10
2021-09-28 10:54:00,,0823.4,5.01,0.00,29.9,28.8,00.0,39.0,31.7,16.1,0002.5,0020.10,0005.65,0004.08
2021-09-28 10:55:00,,0823.5,5.00,0.00,29.9,28.8,00.0,39.0,31.7,16.0,0001.8,0020.67,0005.68,0004.08
2021-09-28 10:56:00,,0823.7,4.99,0.00,29.9,28.9,00.0,39.0,31.7,16.3,0001.4,0020.02,0005.67,0004.07
2021-09-28 10:57:00,,0823.7,4.99,0.00,29.9,28.9,00.0,39.0,31.7,16.2,0000.9,0018.84,0005.77,0004.07
2021-09-28 10:58:00,,0823.7,5.01,0.00,29.9,28.9,00.0,39.0,31.7,16.2,0000.0,0018.51,0005.79,0004.08
2021-09-28 10:59:00,,0823.7,4.99,0.00,29.9,28.9,00.0,39.0,31.7,16.2,0000.0,0018.91,0005.93,0004.10
